Location: Newark
(34.1333°N, 7.9667°W)
Time: 09:12:29
(UTC+00:00)

S-56A Canister/Altair - Pass Details

Date: 10 December 2021
Orbit: 634 x 2499 km, 38.9° (Epoch: 25 January)

Event Time Altitude Azimuth Distance (km) Brightness Sun altitude
Rises 21:09:59 0° 231° (SW) 6,154 12.6 -46.2°
Reaches altitude 10° 21:14:11 10° 229° (SW) 5,076 12.0 -47.1°
Enters shadow 21:23:54 47° 212° (SSW) 2,734 10.2 -49.1°
